Hourly Data Report for May 12, 2021

OTTAWA INTL A
ONTARIO
Current Station Operator: NAVCAN

45°19'00.000" N
75°40'00.000" W
114.90 m
6106001
71628
YOW

Download Data

Hourly Data (May 2021)
Hourly Data Report for May 12, 2021
TIME
LST
Temp Definition
°C
Dew Point Definition
°C
Rel Hum Definition
%
Precip. Amount Definition
mm

Wind Dir Definition
10's deg

Wind Spd Definition
km/h
Visibility Definition
km
Stn Press Definition
kPa
Hmdx Definition


Wind Chill Definition


Weather Definition


00:00 6.6 5.3 92   30 25 24.1 100.30     LegendNANA
01:00 6.3 5.0 91   29 21 24.1 100.31     Mostly Cloudy
02:00 5.6 4.6 93   30 20 24.1 100.33     LegendNANA
03:00 5.0 4.0 93   30 16 24.1 100.39     LegendNANA
04:00 4.6 3.1 90   30 13 24.1 100.48     Clear
05:00 4.4 2.8 89   31 16 24.1 100.54     LegendNANA
06:00 5.1 3.5 89   29 14 24.1 100.66     LegendNANA
07:00 7.8 5.1 83   31 16 24.1 100.72     Clear
08:00 9.1 4.9 75   28 21 24.1 100.80     LegendNANA
09:00 10.8 5.0 67   27 22 24.1 100.81     LegendNANA
10:00 12.3 4.1 57   29 27 24.1 100.82     Clear
11:00 14.2 4.4 51   27 27 24.1 100.82     LegendNANA
12:00 15.7 3.3 43   27 27 24.1 100.78     LegendNANA
13:00 16.5 0.1 33   30 23 24.1 100.76     Mainly Clear
14:00 16.6 -2.3 27   27 27 24.1 100.75     LegendNANA
15:00 16.8 -4.6 23   27 30 24.1 100.74     LegendNANA
16:00 17.0 -6.4 19   28 25 24.1 100.74     Mainly Clear
17:00 16.9 -9.9 15   28 26 24.1 100.74     LegendNANA
18:00 16.3 -10.1 15   31 23 24.1 100.76     LegendNANA
19:00 14.9 -10.3 16   34 18 24.1 100.80     Mainly Clear
20:00 12.8 -7.3 24   34 12 24.1 100.83     LegendNANA
21:00 10.7 -6.4 29   31 9 24.1 100.84     LegendNANA
22:00 10.1 -5.9 32   28 7 24.1 100.87     Clear
23:00 8.1 -3.3 44   30 11 24.1 100.87     LegendNANA

Notes on Data Quality.

Legend

  • E = Estimated
  • M = Missing
  • NA = Not Available*
  • [empty] = Indicates an unobserved value
Date modified: